Location: *
(32.3300°N, 34.8500°E)
Time: 07:43:04
(UTC+00:00)

ATLAS 2AS CENTAUR R/B - Pass Details

Date: 22 October 2019
Orbit: 926 x 1286 km, 63.7° (Epoch: 18 November)

Event Time Altitude Azimuth Distance (km) Brightness Sun altitude
Exits shadow 00:46:15 37° 12° (NNE) 1,898 4.0 -39.2°
Drops below altitude 10° 00:50:47 10° 24° (NNE) 3,289 5.6 -38.2°
Sets 00:53:39 0° 27° (NNE) 4,252 6.3 -37.6°
